sat.trackr.live / text

‹ back to catalog

STP-S29A OBJECT A

NORAD 68627 · 2026-074A

PAYLOAD ACTIVE UNKNOWN

§ Identity

Operator
Country
US
Launch date
2026-04-07
Launch site
AFWTR
Launch vehicle
Mass (kg)
RCS (m²)

External: N2YO · Heavens-Above · Gunter

§ Orbital elements

Epoch: 2026-09-19T05:18:35.377920Z

Period
94.39 min
Inclination
60.0169°
Eccentricity
0.0037144
Mean motion
15.25548982 rev/d
Perigee alt
463.6 km
Apogee alt
514.6 km
Semi-major
6,867.3 km
B*
2.5334e-4
RAAN
177.2905°
Arg perigee
83.8382°
Mean anomaly
276.6929°
Rev number
2,512

§ Raw data

STP-S29A OBJECT A1 68627U 26074A   26262.22124280  .00006311  00000+0  25334-3 0  99972 68627  60.0169 177.2905 0037144  83.8382 276.6929 15.25548982 25125

JSON: /api/v1/satellites/68627 · /tle

For live sub-satellite position, see the globe view (requires WebGL).

§ Visibility from observer

Set your observer location to see the next 7 days of passes ≥ 10°. The values pass through the URL so the page stays shareable.

No JS? Fill the form by hand. The geolocation button needs JavaScript.